Regional Weather Roundup
Issued by NWS Binghamton, NY

Home | Current Version | Previous Version | Text Only | Print | Product List | Glossary On
Versions: 1 2 3 4 5 6 7 8 9 10 11 12 13 14 15 16 17 18 19 20 21 22 23 24 25 26 27
000
ASUS41 KBGM 261110
RWRBGM

REGIONAL WEATHER ROUNDUP
NATIONAL WEATHER SERVICE BINGHAMTON NY
700 AM EDT FRI AUG 26 2016

Note: "fair" indicates few or no clouds below 12,000 feet with no
significant weather and/or obstructions to visibility.

* = Station(s) that does not report precipitation, such as rain,
snow, etc, also no thunder or fog.

NYZ009-015>018-022>025-036-037-044>046-055>057-062-261200
...Central New York...

CITY           SKY/WX    TMP DP  RH WIND       PRES   REMARKS
Binghamton     CLOUDY    70  69  97 W6        30.05R
Cortland       LGT RAIN  72  70  94 W5        30.04R
Dansville      CLOUDY    72  69  90 NW3       30.07R
Elmira         CLOUDY    73  68  84 W3        30.04R
Ithaca         NOT AVBL
Hamilton       MOCLDY    73  70  88 NW3       30.02R
Hornell        PTCLDY    66  66 100 CALM      30.11R FOG
Monticello     CLOUDY    66  66 100 W3        30.05R VSB 1/4
Norwich        MOCLDY    70  70 100 CALM      30.02S
Oneonta        MOCLDY    70  70 100 W5        30.04S FOG
Penn Yan       MOCLDY    72  68  87 VRB6      30.05R
Rome           CLOUDY    72  72 100 W10       29.99R
Sidney         CLOUDY    72  72 100 CALM      30.03R FOG
Syracuse       CLOUDY    73  71  93 NW9       30.00R
$$

PAZ038>040-043-044-047-048-072-261200
...Northeast Pennsylvania...

CITY           SKY/WX    TMP DP  RH WIND       PRES   REMARKS
Hazleton       FAIR      72  70  94 CALM      30.11R
Scranton       MOCLDY    74  72  93 SW7       30.04R
$$
&&
KEY
WCI = Wind Chill Index
VSB = Visibility
HX  = Heat Index
$$




USA.gov is the U.S. government's official web portal to all federal, state and local government web resources and services.